North Bend, WA

7:49 PM PST on February 09, 2016 (GMT -0800)
Mt Si Road | | Change Station
CLOSE
Current Station
Personal Weather Station
Location: North Bend, WA
Elevation: 545 ft
Nearby Weather Stations

Elev 545 ft 47.48 °N, 121.75 °W | Updated 5 seconds ago

Partly Cloudy
Partly Cloudy
53.0 °F
Feels Like 53.0 °F
N
3.0
Wind Variable Wind from SE
Gusts 4.0 mph

Today
High -- | Low -- °F
--% Chance of Precip.
Yesterday
High -- | Low -- °F
Precip. -- in
Pressure 30.14 in
Visibility 10.0 miles
Clouds Clear
Dew Point 43 °F
Humidity 69%
Rainfall 0.00 in
Snow Depth Not available.
7:22 AM 5:20 PM
Waxing Crescent, 3% visible
METAR KRNT 100253Z 14004KT 10SM CLR 14/07 A3013 RMK AO2 SLP207 T01390067 50003
Pressure 30.14 in
Visibility 10.0 miles
Clouds Clear
Dew Point 43 °F
Humidity 69%
Rainfall 0.00 in
Snow Depth Not available.
7:22 AM 5:20 PM
Waxing Crescent, 3% visible
METAR KRNT 100253Z 14004KT 10SM CLR 14/07 A3013 RMK AO2 SLP207 T01390067 50003

10-Day Weather Forecast

Almanac

Astronomy

Feb. 09, 2016 Rise Set
Actual Time
Civil Twilight
Nautical Twilight
Astronomical Twilight
Moon
Length of Visible Light
Length of Day
Tomorrow will be .
, % of the Moon is Illuminated

Today's Extremes

State Highs State Lows

Community

WunderPhotos

Upload Photos

1,891,792 photos uploaded!

WunderBlog® & News

Nearby

Air Quality

  Air Quality AQ Index Pollutant
Not available.

Snow Depth

Station Depth Elevation

Earthquake Activity

City Distance Mag. Time & Date
Minimum magnitude displayed is 2.5.

Coastal Water Temperatures

Place Temperature

Stations

Nearby Weather Stations

Station Location Temp. Windchill Dew Point Humidity Wind Precip. Elev Updated Type
                   

Watches & Warnings

There are currently no watches in effect.